Regional Weather Roundup
Issued by NWS

Home | Current Version | Previous Version | Graphics & Text | Print | Product List | Glossary On
Versions: 1 2 3 4 5 6 7 8 9 10 11 12 13 14 15 16 17 18 19 20 21 22 23 24 25 26 27 28 29 30 31 32 33 34 35 36 37 38 39 40 41 42 43 44 45 46 47 48 49 50
000
ASUS45 KABQ 181801
RWRNM
WEATHER ROUNDUP FOR NEW MEXICO
NATIONAL WEATHER SERVICE ALBUQUERQUE NM
1200 PM MDT SAT APR 18 2015

NOTE: "FAIR" MEANS FEW OR NO CLOUDS BELOW 12,000 FEET AGL WITH NO
       SIGNIFICANT WEATHER OR OBSTRUCTIONS TO VISION.

      THIS PRODUCT IS RELEASED AS TWO VERSIONS.  ONE VERSION NEAR
      THE TOP OF THE HOUR CONTAINING PRELIMINARY DATA FROM ALBUQUERQUE
      AND OTHER STATIONS.  A FINAL VERSION WITH ADDITIONAL DATA IS
      ISSUED ABOUT 10 MINUTES AFTER THE HOUR.

NMZ501-503-504-510>518-181900-
NORTHWEST PLATEAU/NORTHCENTRAL MOUNTAINS

CITY           SKY/WX    TMP DP  RH WIND       PRES   REMARKS
FARMINGTON     PTSUNNY   44  36  73 W9        30.04F
6HR MIN TEMP:  31; 6HR MAX TEMP:  44;

SANTA FE       PTSUNNY   41  30  65 VRB7      30.01F
6HR MIN TEMP:  32; 6HR MAX TEMP:  41; 6HR PCP:  0.06;

ANGEL FIRE     FAIR      41  19  40 W17       29.95S

$$
NMZ402-403-502-505>509-181900-
WESTCENTRAL MOUNTAINS/SOUTHWEST MOUNTAINS

CITY           SKY/WX    TMP DP  RH WIND       PRES   REMARKS
GALLUP         MOSUNNY   56  25  30 NW16G26   30.04F
6HR MIN TEMP:  36; 6HR MAX TEMP:  56;

SILVER CITY      N/A     61  19  20 W15G26    30.06F

$$
NMZ407-409-411-412-181900-
SOUTHERN DESERTS

CITY           SKY/WX    TMP DP  RH WIND       PRES   REMARKS
DEMING         SUNNY     68  20  16 W15G26    30.02F
6HR MIN TEMP:  32; 6HR MAX TEMP:  68;

ALAMOGORDO     SUNNY     66  19  16 SW6       29.98F
T OR C         CLOUDY    63  26  24 NW14G22   29.98F
6HR MIN TEMP:  40; 6HR MAX TEMP:  65;


$$
NMZ519>523-181900-
CENTRAL VALLEYS/CENTRAL HIGHLANDS

CITY           SKY/WX    TMP DP  RH WIND       PRES   REMARKS
ALBUQUERQUE    PTSUNNY   52  27  38 N9        30.01F
6HR MIN TEMP:  37; 6HR MAX TEMP:  53;

DOUBLE EAGLE   PTSUNNY   48  28  46 NW16      30.02F
CLINES CORNERS MOSUNNY   49  27  42 NW24G35   29.95F
6HR MIN TEMP:  28; 6HR MAX TEMP:  50; 6HR PCP: TRACE;

BELEN          FAIR      57  26  30 N9        29.99F
6HR MIN TEMP:  32; 6HR MAX TEMP:  58;

SOCORRO        NOT AVBL

$$
NMZ524>526-539-540-181900-
SOUTHCENTRAL MOUNTAINS

CITY           SKY/WX    TMP DP  RH WIND       PRES   REMARKS
RUIDOSO        NOT AVBL

$$
NMZ527>531-181900-
NORTHEAST HIGHLANDS/NORTHEAST PLAINS

CITY           SKY/WX    TMP DP  RH WIND       PRES   REMARKS
LAS VEGAS      PTSUNNY   45  23  42 S9        29.93F
6HR MIN TEMP:  29; 6HR MAX TEMP:  47; 6HR PCP: TRACE;

RATON          MOSUNNY   48  16  27 VRB5      29.89F
6HR MIN TEMP:  29; 6HR MAX TEMP:  50;

CLAYTON        LGT RAIN  41  36  82 CALM      29.94F
6HR MIN TEMP:  37; 6HR MAX TEMP:  51; 6HR PCP:  0.07;


$$
NMZ532>537-181900-
EASTCENTRAL PLAINS

CITY           SKY/WX    TMP DP  RH WIND       PRES   REMARKS
TUCUMCARI      CLOUDY    53  33  46 W13       29.92F
6HR MIN TEMP:  35; 6HR MAX TEMP:  57; 6HR PCP: TRACE;

CANNON AFB     NOT AVBL
CLOVIS AIRPORT PTSUNNY   64  25  22 SW24      29.91F

$$
NMZ028-029-538-181900-
SOUTHEAST PLAINS

CITY           SKY/WX    TMP DP  RH WIND       PRES   REMARKS
ROSWELL        MOSUNNY   71  23  16 W13G28    29.91F
6HR MIN TEMP:  36; 6HR MAX TEMP:  71;

ARTESIA        SUNNY     70  23  17 SW10G18   29.92F
CARLSBAD       SUNNY     72  25  17 VRB3      29.92F
6HR MIN TEMP:  43; 6HR MAX TEMP:  72;

HOBBS          SUNNY     68  25  19 SW16G22   29.95F


$$


USA.gov is the U.S. government's official web portal to all federal, state and local government web resources and services.